Showing default

CYGNUS NG-23, 65616

Orbit data source: Space-Track

CYGNUS NG-23, 65616 is a payload satellite owned by NGIS (US) in LEO that was launched on Sun, 14 Sep 2025 UTC via an FALCON 9 launch vehicle from the Air Force Eastern Test Range (AFETR). Payload-class satellites include a variety of spacecraft equipped with specific instruments for various scientific and technological missions. These include communications satellites like Starlink; space stations such as the ISS; scientific satellites like the Hubble; Earth observation satellites from companies like Planet Labs, Umbra, and HawkEye 360; GPS; miniature CubeSats for education and research; and military/defense satellites.

Loading next visibility...
Identifier
65616, 2025-208A
Orbit
LEO
Country
Flag of USUS
Related business
None
Manufacturer
NGIS SSG
Mission
Operational spacecraft
Bus & Motor
SPCM, Unknown motor
Mass
10,000 kg wet, ~3,000 kg dry
Launch date (UTC)
2025-09-14 (4 days ago)
Launch vehicle
FALCON 9
Launch site
Air Force Eastern Test Range (AFETR)
Object type
Payload
Rocket body
Debris
Shape & HBR
Unknown
Radar Cross Section
RCS unknown

Expand to show TLE details & history
Last TLE update: 2 days ago

TLE from 2 days ago
0 CYGNUS NG-23
1 65616U 25208A   25259.28745561  .00104368  14787-4  29556-3 0  9995
2 65616  51.6599 215.5269 0102655  34.2966 326.4610 15.84751915   222
Epoch: 2025-09-16T06:53Z
TLE epoch observation values (Epoch: 2025-09-16T06:53:56.164Z)
Latitude
-0.00004°
Longitude
116.56293°
Altitude
260.712 km
Speed
7.785 km/s
True Right ascension
14h 22m 06s
True Declination
0° 00' 00"
Sunlit
Object was in daylight at epoch
Visualization orbit readout
Latitude
Unknown
Longitude
Unknown
Altitude
Unknown
Speed
Unknown
Apparent Right ascension
Unknown
Apparent Declination
Unknown
Sunlit
N/A
Visualization observer readout
Local Sidereal Time
12:30:10
Azimuth
Unknown
Elevation
Unknown
Doppler factor
Unknown
Orbital elements
Apogee altitude
386.27 km
Perigee altitude
248.801 km
Semi-major axis
6,695.672 km
Eccentricity
0.01027
Inclination
51.6599°
RAAN
215.5269°
Arg. of periapsis
34.2966°
True anomaly
325.80406°
Mean anomaly
326.461°
Eccentric anomaly
326.13323°
Mean motion
3.96143 °/min
Orbital period
90.88 mins
BSTAR
0.00029556
Loading maneuver chart data...
Computing Atmospheric mass density...
Loading historical data...
Loading historical data...
Loading historical data...
Loading historical data...
Loading historical data...
Loading historical data...
Loading historical data...
Other satellites on launch #208 in the year 2025 (2025-09-14 UTC)

Documentation

Showing up to 5 results
|